TimeCDT,TemperatureF,Dew PointF,Humidity,Sea Level PressureIn,VisibilityMPH,Wind Direction,Wind SpeedMPH,Gust SpeedMPH,PrecipitationIn,Events,Conditions,WindDirDegrees,DateUTC
12:52 AM,50.0,32.0,50,29.96,10.0,SSW,13.8,-,N/A,,Clear,200,2012-10-09 05:52:00
1:52 AM,51.1,32.0,48,29.95,10.0,SSW,16.1,-,N/A,,Mostly Cloudy,200,2012-10-09 06:52:00
2:52 AM,50.0,33.1,52,29.94,10.0,SSW,15.0,23.0,N/A,,Mostly Cloudy,200,2012-10-09 07:52:00
3:52 AM,50.0,33.1,52,29.92,10.0,SSW,15.0,-,N/A,,Overcast,200,2012-10-09 08:52:00
4:52 AM,48.9,33.1,54,29.91,10.0,SSW,13.8,-,N/A,,Clear,200,2012-10-09 09:52:00
6:52 AM,48.9,35.1,59,29.91,10.0,SSW,15.0,-,N/A,,Clear,210,2012-10-09 11:52:00
7:52 AM,48.9,36.0,61,29.91,10.0,SSW,18.4,25.3,N/A,,Clear,200,2012-10-09 12:52:00
8:52 AM,50.0,37.0,61,29.90,10.0,SSW,17.3,25.3,N/A,,Clear,200,2012-10-09 13:52:00
9:52 AM,52.0,37.9,59,29.88,10.0,SSW,15.0,-,N/A,,Clear,200,2012-10-09 14:52:00
10:52 AM,57.0,37.9,49,29.86,10.0,SSW,19.6,-,N/A,,Clear,200,2012-10-09 15:52:00
11:52 AM,60.1,39.0,46,29.84,10.0,SSW,20.7,27.6,N/A,,Clear,200,2012-10-09 16:52:00
12:52 PM,62.1,39.0,43,29.81,10.0,SSW,21.9,31.1,N/A,,Clear,210,2012-10-09 17:52:00
1:52 PM,64.0,37.9,38,29.79,10.0,SSW,20.7,31.1,N/A,,Clear,200,2012-10-09 18:52:00
2:52 PM,64.9,36.0,34,29.78,10.0,SSW,27.6,35.7,N/A,,Clear,210,2012-10-09 19:52:00
3:52 PM,64.0,36.0,35,29.76,10.0,SSW,21.9,41.4,N/A,,Clear,200,2012-10-09 20:52:00
4:52 PM,63.0,36.0,37,29.77,10.0,SSW,20.7,31.1,N/A,,Clear,210,2012-10-09 21:52:00
5:52 PM,63.0,37.0,38,29.77,10.0,SW,13.8,25.3,N/A,,Mostly Cloudy,220,2012-10-09 22:52:00
6:52 PM,60.1,39.0,46,29.79,10.0,Variable,6.9,-,N/A,,Overcast,0,2012-10-09 23:52:00
7:52 PM,50.0,39.9,68,29.84,10.0,WNW,17.3,25.3,0.00,,Overcast,300,2012-10-10 00:52:00
8:14 PM,46.4,39.2,76,29.86,7.0,WNW,13.8,26.5,0.00,Rain,Light Rain,290,2012-10-10 01:14:00
9:52 PM,41.0,37.9,89,29.90,5.0,Variable,4.6,-,0.12,Rain,Rain,0,2012-10-10 02:52:00
10:52 PM,41.0,39.0,93,29.89,10.0,SW,6.9,-,0.08,,Overcast,220,2012-10-10 03:52:00
11:52 PM,41.0,39.0,93,29.89,10.0,SW,4.6,-,N/A,,Overcast,230,2012-10-10 04:52:00